Location: Bodest
(46.3000°N, 22.5667°E)
Time: 12:01:16
(UTC+00:00)

Cosmos 1626 Rocket - Pass Details

Date: 29 May 2022
Orbit: 602 x 631 km, 82.5° (Epoch: 01 July)

Event Time Altitude Azimuth Distance (km) Brightness Sun altitude
Rises 01:24:01 0° 163° (SSE) 2,887 6.7 -11.2°
Reaches altitude 10° 01:26:25 10° 153° (SSE) 1,981 5.9 -10.9°
Maximum altitude 01:30:18 32° 91° (E) 1,065 5.2 -10.5°
Drops below altitude 10° 01:34:12 10° 28° (NNE) 1,980 7.6 -10.0°
Sets 01:36:35 0° 18° (NNE) 2,885 8.3 -9.7°
